OPS 0100 (TRANSIT 15)

导读

OPS 0100(又名TRANSIT 15)是美国于1967年4月14日发射的导航卫星,属于早期 Transit 导航卫星系统,该系统是全球首个卫星导航系统,为海上舰艇提供全天候定位服务,是现代GPS导航技术的先驱。 它运行在近地轨道,通过多普勒定位原理,为用户提供经度、纬度位置信息,在航海领域开启了卫星导航应用新纪元,也为后续全球导航卫星系统发展积累了技术与轨道数据,推动了人类航天导航技术的起步。

Basic Information
目录编号:
2754
目录名称:
OPS 0100 (TRANSIT 15)
国际标识:
1967-034A
轨道中心:
EARTH
卫星名称:
OPS 0100 (TRANSIT 15)
卫星全名:
--
卫星状态:
在轨 (已飞行21612 天)
发射日期:
1967-04-14 UTC
国别 :
美国 (US)
星等 :
--
Orbit Information
数据来源 国际轨道数据 AOE轨道数据
星历时间 2026-06-15T05:29:22+0800
7小时前
查看轨道信息
2026-06-15T01:00:00+0800
12小时前
查看轨道信息
半长轴 7423.274km 7423.276km
偏心率 0.0020383 0.0020328
轨道倾角 90.235° 90.235°
近地点辐角 147.663° 148.207°
升交点赤经 35.122° 35.117°
平近点角 223.569° 29.450°
近地点 1030.006km 1030.048km
远地点 1060.268km 1060.23km
周期 106.085分钟 106.085分钟
每日圈数 13.574053 13.574049
Detailed Information
使用方式:
暂无
2D Orbit Map
3D Orbit Map
Orbit Altitude Analysis Chart
Orbit Inclination Analysis Chart
Orbit Comprehensive Analysis Chart
View Comprehensive Chart